EZY621T EGKK-EGAA

Flight info

Callsign EZY621T
Flight time 1h 4m
Altitude 38000
Route LAM L10 BPK UN601 LESTA UP6 RODOL UM65 TENSO L603 BELOX DCT REMSI DCT UVPOK M147 ROBOP M146 IPSET P6 BELZU
Aircraft A20N/M-SDE2E3FGHIJ1RWXYZ/LB1G1

Departure

Time 2026-05-05 21:11
Airport London Gatwick Airport (EGKK)

Arrival

Time 2026-05-05 22:15
Airport Belfast International Airport (EGAA)
Time Latitude Longitude Altitude Speed Heading
2026-05-05 20:48 51.15858 -0.17525 213 ft 0 kts 347°
2026-05-05 20:59 51.15857 -0.17525 208 ft 2 kts 347°
2026-05-05 20:59 51.15838 -0.17518 217 ft 3 kts 347°
2026-05-05 20:59 51.15821 -0.17509 211 ft 3 kts 334°
2026-05-05 21:00 51.15807 -0.17498 208 ft 0 kts 324°
2026-05-05 21:00 51.15796 -0.17484 210 ft 2 kts 302°
2026-05-05 21:00 51.15788 -0.17458 214 ft 3 kts 293°
2026-05-05 21:00 51.15781 -0.17432 212 ft 3 kts 281°
2026-05-05 21:01 51.15778 -0.17405 219 ft 0 kts 257°
2026-05-05 21:01 51.15777 -0.17405 219 ft 0 kts 257°
2026-05-05 21:04 51.15774 -0.17427 220 ft 5 kts 255°
2026-05-05 21:04 51.15761 -0.17508 218 ft 10 kts 257°
2026-05-05 21:05 51.15741 -0.17649 210 ft 15 kts 259°
2026-05-05 21:05 51.15716 -0.17841 215 ft 20 kts 258°
2026-05-05 21:05 51.15684 -0.18074 212 ft 22 kts 258°
2026-05-05 21:05 51.15652 -0.18311 211 ft 20 kts 246°
2026-05-05 21:06 51.15533 -0.18327 208 ft 19 kts 168°
2026-05-05 21:06 51.15405 -0.18285 209 ft 19 kts 168°
2026-05-05 21:06 51.15275 -0.18241 210 ft 19 kts 167°
2026-05-05 21:06 51.15186 -0.18316 217 ft 17 kts 262°
2026-05-05 21:07 51.15163 -0.18495 212 ft 17 kts 257°
2026-05-05 21:07 51.15138 -0.18677 210 ft 17 kts 258°
2026-05-05 21:07 51.15112 -0.18865 217 ft 17 kts 258°
2026-05-05 21:07 51.15086 -0.19059 219 ft 19 kts 258°
2026-05-05 21:08 51.15055 -0.19279 217 ft 21 kts 256°
2026-05-05 21:08 51.15022 -0.19523 211 ft 24 kts 258°
2026-05-05 21:08 51.14986 -0.19790 211 ft 26 kts 258°
2026-05-05 21:08 51.14946 -0.20081 214 ft 28 kts 258°
2026-05-05 21:09 51.14904 -0.20379 214 ft 28 kts 257°
2026-05-05 21:09 51.14862 -0.20680 208 ft 28 kts 257°
2026-05-05 21:09 51.14821 -0.20983 212 ft 28 kts 257°
2026-05-05 21:09 51.14772 -0.21281 208 ft 27 kts 261°
2026-05-05 21:10 51.14668 -0.21370 213 ft 21 kts 147°
2026-05-05 21:10 51.14547 -0.21266 212 ft 19 kts 135°
2026-05-05 21:10 51.14533 -0.21079 216 ft 25 kts 77°
2026-05-05 21:10 51.14622 -0.20449 212 ft 91 kts 78°
2026-05-05 21:11 51.14801 -0.19131 216 ft 150 kts 78°
2026-05-05 21:11 51.15028 -0.17367 482 ft 169 kts 78°
2026-05-05 21:11 51.15228 -0.15521 1100 ft 170 kts 81°
2026-05-05 21:11 51.15372 -0.13671 1856 ft 167 kts 84°
2026-05-05 21:12 51.15605 -0.11742 2326 ft 191 kts 75°
2026-05-05 21:12 51.15973 -0.09589 2784 ft 209 kts 74°
2026-05-05 21:12 51.16443 -0.07287 3225 ft 233 kts 64°
2026-05-05 21:12 51.17325 -0.05050 3847 ft 248 kts 52°
2026-05-05 21:13 51.18391 -0.02851 4802 ft 252 kts 51°
2026-05-05 21:13 51.19499 -0.00613 5739 ft 256 kts 50°
2026-05-05 21:13 51.20592 0.01607 6648 ft 261 kts 50°
2026-05-05 21:13 51.21719 0.03917 7507 ft 266 kts 50°
2026-05-05 21:14 51.22860 0.06267 8408 ft 270 kts 51°
2026-05-05 21:14 51.24017 0.08667 9310 ft 275 kts 52°
2026-05-05 21:14 51.24970 0.11345 10170 ft 282 kts 69°
2026-05-05 21:14 51.25477 0.14403 10989 ft 288 kts 77°
2026-05-05 21:15 51.25855 0.17565 11854 ft 292 kts 78°
2026-05-05 21:15 51.26220 0.20776 12615 ft 295 kts 78°
2026-05-05 21:15 51.26590 0.24011 13078 ft 297 kts 78°
2026-05-05 21:15 51.26970 0.27290 13792 ft 303 kts 78°
2026-05-05 21:16 51.27546 0.30524 14608 ft 304 kts 64°
2026-05-05 21:16 51.28743 0.33279 15412 ft 304 kts 42°
2026-05-05 21:16 51.30531 0.35066 16144 ft 307 kts 19°
2026-05-05 21:16 51.32643 0.35549 16865 ft 311 kts 355°
2026-05-05 21:17 51.34747 0.34743 17505 ft 314 kts 340°
2026-05-05 21:17 51.36798 0.33451 18200 ft 320 kts 338°
2026-05-05 21:17 51.38866 0.32063 18818 ft 325 kts 337°
2026-05-05 21:17 51.40959 0.30664 19531 ft 326 kts 337°
2026-05-05 21:18 51.43065 0.29271 20247 ft 328 kts 337°
2026-05-05 21:18 51.45191 0.27874 20924 ft 331 kts 337°
2026-05-05 21:18 51.47338 0.26470 21544 ft 335 kts 337°
2026-05-05 21:18 51.49510 0.25051 22146 ft 340 kts 337°
2026-05-05 21:19 51.51710 0.23614 22772 ft 343 kts 337°
2026-05-05 21:19 51.53924 0.22168 23383 ft 345 kts 336°
2026-05-05 21:19 51.56162 0.20706 23889 ft 349 kts 337°
2026-05-05 21:19 51.58426 0.19225 24339 ft 353 kts 336°
2026-05-05 21:20 51.60715 0.17724 24780 ft 357 kts 335°
2026-05-05 21:20 51.62945 0.15959 25220 ft 359 kts 326°
2026-05-05 21:20 51.64928 0.13519 25621 ft 361 kts 314°
2026-05-05 21:20 51.66053 0.11518 25768 ft 366 kts 307°
2026-05-05 21:21 51.67605 0.08193 25954 ft 376 kts 303°
2026-05-05 21:21 51.69071 0.04638 26138 ft 386 kts 301°
2026-05-05 21:21 51.70517 0.00928 26326 ft 396 kts 300°
2026-05-05 21:21 51.71982 -0.02886 26639 ft 403 kts 300°
2026-05-05 21:22 51.73537 -0.06677 27037 ft 408 kts 305°
2026-05-05 21:22 51.75426 -0.10132 27402 ft 414 kts 314°
2026-05-05 21:22 51.77688 -0.13067 27770 ft 420 kts 323°
2026-05-05 21:22 51.80136 -0.15688 28144 ft 424 kts 325°
2026-05-05 21:23 51.82669 -0.18186 28459 ft 429 kts 326°
2026-05-05 21:23 51.85254 -0.20632 28805 ft 433 kts 327°
2026-05-05 21:23 51.87870 -0.23073 29168 ft 436 kts 327°
2026-05-05 21:23 51.90506 -0.25534 29517 ft 439 kts 327°
2026-05-05 21:24 51.93154 -0.28025 29865 ft 442 kts 327°
2026-05-05 21:24 51.95812 -0.30547 30186 ft 444 kts 326°
2026-05-05 21:24 51.98484 -0.33099 30485 ft 447 kts 326°
2026-05-05 21:24 52.01165 -0.35672 30786 ft 449 kts 326°
2026-05-05 21:25 52.03855 -0.38261 31078 ft 451 kts 326°
2026-05-05 21:25 52.06550 -0.40859 31516 ft 449 kts 326°
2026-05-05 21:25 52.09225 -0.43441 31983 ft 447 kts 326°
2026-05-05 21:25 52.11893 -0.46019 32400 ft 446 kts 326°
2026-05-05 21:26 52.14555 -0.48596 32782 ft 445 kts 326°
2026-05-05 21:26 52.17212 -0.51172 33161 ft 444 kts 327°
2026-05-05 21:26 52.19863 -0.53746 33543 ft 443 kts 327°
2026-05-05 21:26 52.22512 -0.56320 33909 ft 442 kts 327°
2026-05-05 21:27 52.25151 -0.58890 34217 ft 442 kts 327°
2026-05-05 21:27 52.27784 -0.61456 34523 ft 441 kts 327°
2026-05-05 21:27 52.30410 -0.64019 34895 ft 438 kts 327°
2026-05-05 21:27 52.33013 -0.66564 35249 ft 435 kts 327°
2026-05-05 21:28 52.35611 -0.69106 35491 ft 436 kts 327°
2026-05-05 21:28 52.38213 -0.71658 35712 ft 436 kts 327°
2026-05-05 21:28 52.40820 -0.74218 35923 ft 437 kts 327°
2026-05-05 21:28 52.43425 -0.76779 36148 ft 437 kts 327°
2026-05-05 21:29 52.46029 -0.79343 36373 ft 437 kts 327°
2026-05-05 21:29 52.48634 -0.81910 36589 ft 437 kts 327°
2026-05-05 21:29 52.51243 -0.84485 36806 ft 437 kts 327°
2026-05-05 21:29 52.53845 -0.87058 37032 ft 437 kts 327°
2026-05-05 21:30 52.56444 -0.89630 37268 ft 436 kts 327°
2026-05-05 21:30 52.59042 -0.92205 37476 ft 436 kts 327°
2026-05-05 21:30 52.61642 -0.94786 37663 ft 436 kts 326°
2026-05-05 21:30 52.64236 -0.97364 37857 ft 436 kts 326°
2026-05-05 21:31 52.66835 -0.99951 38005 ft 437 kts 326°
2026-05-05 21:31 52.69439 -1.02548 38027 ft 438 kts 327°
2026-05-05 21:31 52.74474 -1.08112 38042 ft 433 kts 317°
2026-05-05 21:32 52.78958 -1.14742 38039 ft 432 kts 315°
2026-05-05 21:32 52.83321 -1.21571 38054 ft 432 kts 314°
2026-05-05 21:33 52.87654 -1.28445 38049 ft 432 kts 314°
2026-05-05 21:33 52.91962 -1.35275 38051 ft 432 kts 314°
2026-05-05 21:34 52.96303 -1.42155 38050 ft 432 kts 314°
2026-05-05 21:34 53.00644 -1.49047 38058 ft 432 kts 314°
2026-05-05 21:35 53.04973 -1.55939 38045 ft 430 kts 314°
2026-05-05 21:35 53.09275 -1.62810 38048 ft 428 kts 314°
2026-05-05 21:36 53.13567 -1.69686 38045 ft 428 kts 314°
2026-05-05 21:36 53.17852 -1.76572 38052 ft 428 kts 314°
2026-05-05 21:37 53.22148 -1.83454 38047 ft 429 kts 317°
2026-05-05 21:37 53.27044 -1.89192 38054 ft 432 kts 326°
2026-05-05 21:38 53.32242 -1.94262 38051 ft 433 kts 328°
2026-05-05 21:38 53.37496 -1.99207 38051 ft 433 kts 328°
2026-05-05 21:39 53.42744 -2.04160 38051 ft 433 kts 328°
2026-05-05 21:39 53.47981 -2.09146 38061 ft 433 kts 328°
2026-05-05 21:40 53.53210 -2.14153 38064 ft 432 kts 328°
2026-05-05 21:40 53.58080 -2.19958 38063 ft 428 kts 313°
2026-05-05 21:41 53.61584 -2.27914 38065 ft 422 kts 294°
2026-05-05 21:41 53.63909 -2.36992 38062 ft 422 kts 290°
2026-05-05 21:42 53.65993 -2.46249 38061 ft 422 kts 289°
2026-05-05 21:42 53.68051 -2.55526 38061 ft 422 kts 289°
2026-05-05 21:43 53.70117 -2.64735 38062 ft 422 kts 289°
2026-05-05 21:43 53.72207 -2.74002 38062 ft 422 kts 289°
2026-05-05 21:44 53.74292 -2.83268 38058 ft 422 kts 289°
2026-05-05 21:44 53.76369 -2.92543 38059 ft 422 kts 289°
2026-05-05 21:45 53.78437 -3.01826 38064 ft 422 kts 289°
2026-05-05 21:45 53.80497 -3.11115 38062 ft 422 kts 289°
2026-05-05 21:46 53.82549 -3.20408 38061 ft 422 kts 289°
2026-05-05 21:46 53.84597 -3.29731 38062 ft 423 kts 289°
2026-05-05 21:47 53.86640 -3.39065 38056 ft 422 kts 288°
2026-05-05 21:47 53.88674 -3.48401 38057 ft 422 kts 288°
2026-05-05 21:48 53.90698 -3.57736 38059 ft 422 kts 288°
2026-05-05 21:48 53.92714 -3.67078 38059 ft 422 kts 288°
2026-05-05 21:49 53.94720 -3.76417 38063 ft 420 kts 289°
2026-05-05 21:49 53.96272 -3.85919 38060 ft 417 kts 279°
2026-05-05 21:50 53.96788 -3.90805 37697 ft 423 kts 278°
2026-05-05 21:50 53.97260 -3.95755 36919 ft 427 kts 278°
2026-05-05 21:50 53.97708 -4.00773 36120 ft 432 kts 277°
2026-05-05 21:50 53.98145 -4.05841 35412 ft 434 kts 277°
2026-05-05 21:51 53.98581 -4.10925 34766 ft 435 kts 277°
2026-05-05 21:51 53.99099 -4.15991 34161 ft 436 kts 283°
2026-05-05 21:51 54.00029 -4.20875 33635 ft 434 kts 291°
2026-05-05 21:51 54.01415 -4.25411 33111 ft 432 kts 299°
2026-05-05 21:52 54.04662 -4.33815 32116 ft 425 kts 303°
2026-05-05 21:52 54.06359 -4.37911 31600 ft 421 kts 303°
2026-05-05 21:52 54.08054 -4.41950 31135 ft 418 kts 303°
2026-05-05 21:53 54.09735 -4.45959 30653 ft 414 kts 303°
2026-05-05 21:53 54.11245 -4.49576 30209 ft 411 kts 303°
2026-05-05 21:53 54.12886 -4.53532 29688 ft 407 kts 303°
2026-05-05 21:53 54.14510 -4.57471 29127 ft 404 kts 303°
2026-05-05 21:54 54.16113 -4.61376 28638 ft 400 kts 303°
2026-05-05 21:54 54.17696 -4.65242 28151 ft 396 kts 303°
2026-05-05 21:54 54.19262 -4.69075 27491 ft 392 kts 303°
2026-05-05 21:54 54.20814 -4.72878 26806 ft 388 kts 303°
2026-05-05 21:55 54.22351 -4.76649 26135 ft 385 kts 303°
2026-05-05 21:55 54.23869 -4.80377 25582 ft 379 kts 303°
2026-05-05 21:55 54.25365 -4.84057 24939 ft 376 kts 303°
2026-05-05 21:55 54.26851 -4.87717 24287 ft 374 kts 303°
2026-05-05 21:56 54.28320 -4.91341 23727 ft 369 kts 303°
2026-05-05 21:56 54.29779 -4.94946 23032 ft 366 kts 303°
2026-05-05 21:56 54.31214 -4.98494 22482 ft 359 kts 303°
2026-05-05 21:56 54.32616 -5.01967 22011 ft 351 kts 303°
2026-05-05 21:57 54.33988 -5.05369 21548 ft 343 kts 303°
2026-05-05 21:57 54.35330 -5.08700 21079 ft 336 kts 303°
2026-05-05 21:57 54.36643 -5.11966 20619 ft 330 kts 303°
2026-05-05 21:57 54.37933 -5.15180 20170 ft 324 kts 303°
2026-05-05 21:58 54.39200 -5.18343 19727 ft 319 kts 303°
2026-05-05 21:58 54.40455 -5.21476 19270 ft 319 kts 303°
2026-05-05 21:58 54.41711 -5.24619 18826 ft 320 kts 303°
2026-05-05 21:58 54.42968 -5.27769 18372 ft 319 kts 303°
2026-05-05 21:59 54.44204 -5.30865 17891 ft 318 kts 303°
2026-05-05 21:59 54.45575 -5.33838 17440 ft 316 kts 309°
2026-05-05 21:59 54.47029 -5.36653 17031 ft 314 kts 311°
2026-05-05 21:59 54.48511 -5.39389 16592 ft 312 kts 312°
2026-05-05 22:00 54.50005 -5.42073 16152 ft 310 kts 312°
2026-05-05 22:00 54.51335 -5.44949 15707 ft 307 kts 300°
2026-05-05 22:00 54.52289 -5.48217 15268 ft 305 kts 293°
2026-05-05 22:00 54.53076 -5.51592 14833 ft 303 kts 290°
2026-05-05 22:01 54.53763 -5.55017 14401 ft 302 kts 288°
2026-05-05 22:01 54.54395 -5.58458 13972 ft 301 kts 287°
2026-05-05 22:01 54.55005 -5.61892 13511 ft 299 kts 287°
2026-05-05 22:01 54.55611 -5.65307 13096 ft 296 kts 287°
2026-05-05 22:02 54.56215 -5.68681 12687 ft 294 kts 288°
2026-05-05 22:02 54.56821 -5.72025 12266 ft 291 kts 288°
2026-05-05 22:02 54.57428 -5.75345 11844 ft 289 kts 288°
2026-05-05 22:02 54.58034 -5.78639 11424 ft 288 kts 288°
2026-05-05 22:03 54.58637 -5.81917 11002 ft 286 kts 288°
2026-05-05 22:03 54.59240 -5.85188 10588 ft 285 kts 288°
2026-05-05 22:03 54.59830 -5.88399 10371 ft 277 kts 288°
2026-05-05 22:03 54.60409 -5.91561 9960 ft 277 kts 288°
2026-05-05 22:04 54.60987 -5.94717 9535 ft 275 kts 288°
2026-05-05 22:04 54.61559 -5.97852 9142 ft 272 kts 288°
2026-05-05 22:04 54.62125 -6.00953 8766 ft 270 kts 288°
2026-05-05 22:04 54.62686 -6.04036 8394 ft 270 kts 288°
2026-05-05 22:05 54.63249 -6.07132 8012 ft 270 kts 288°
2026-05-05 22:05 54.63808 -6.10216 7631 ft 269 kts 287°
2026-05-05 22:05 54.64367 -6.13301 7254 ft 270 kts 287°
2026-05-05 22:05 54.64927 -6.16398 6875 ft 271 kts 287°
2026-05-05 22:06 54.65486 -6.19503 6506 ft 272 kts 287°
2026-05-05 22:06 54.66060 -6.22618 6149 ft 271 kts 287°
2026-05-05 22:06 54.66628 -6.25713 5705 ft 271 kts 287°
2026-05-05 22:06 54.67194 -6.28842 5203 ft 274 kts 287°
2026-05-05 22:07 54.67564 -6.30916 4946 ft 273 kts 287°
2026-05-05 22:07 54.68113 -6.34060 4523 ft 272 kts 287°
2026-05-05 22:07 54.68401 -6.38287 4098 ft 266 kts 259°
2026-05-05 22:07 54.68072 -6.40299 3972 ft 260 kts 251°
2026-05-05 22:08 54.67409 -6.43165 3730 ft 254 kts 248°
2026-05-05 22:08 54.66723 -6.45931 3512 ft 248 kts 247°
2026-05-05 22:08 54.66033 -6.48651 3170 ft 247 kts 248°
2026-05-05 22:08 54.65094 -6.52191 2994 ft 243 kts 247°
2026-05-05 22:09 54.64536 -6.53917 2990 ft 246 kts 233°
2026-05-05 22:09 54.63198 -6.55717 2992 ft 247 kts 203°
2026-05-05 22:09 54.61526 -6.56279 2993 ft 247 kts 176°
2026-05-05 22:09 54.59900 -6.55632 2986 ft 232 kts 158°
2026-05-05 22:10 54.58471 -6.54619 3011 ft 216 kts 154°
2026-05-05 22:10 54.57156 -6.53433 2990 ft 212 kts 136°
2026-05-05 22:10 54.56397 -6.51366 2992 ft 204 kts 100°
2026-05-05 22:10 54.56468 -6.48999 2988 ft 198 kts 67°
2026-05-05 22:11 54.57235 -6.47088 2965 ft 194 kts 43°
2026-05-05 22:11 54.58259 -6.45559 2595 ft 195 kts 38°
2026-05-05 22:11 54.59282 -6.44045 2225 ft 193 kts 42°
2026-05-05 22:11 54.60159 -6.42300 2013 ft 195 kts 53°
2026-05-05 22:12 54.60857 -6.40247 1980 ft 196 kts 62°
2026-05-05 22:12 54.61268 -6.38160 1976 ft 176 kts 71°
2026-05-05 22:12 54.61566 -6.36287 1976 ft 149 kts 68°
2026-05-05 22:12 54.61908 -6.34749 1998 ft 130 kts 58°
2026-05-05 22:13 54.62375 -6.33421 1826 ft 130 kts 52°
2026-05-05 22:13 54.62874 -6.32130 1484 ft 129 kts 56°
2026-05-05 22:13 54.63268 -6.30748 1194 ft 128 kts 64°
2026-05-05 22:13 54.63625 -6.29342 1015 ft 128 kts 60°
2026-05-05 22:14 54.64018 -6.27963 840 ft 128 kts 62°
2026-05-05 22:14 54.64396 -6.26574 674 ft 128 kts 62°
2026-05-05 22:14 54.64771 -6.25187 504 ft 127 kts 66°
2026-05-05 22:14 54.65150 -6.23827 366 ft 126 kts 62°
2026-05-05 22:15 54.65507 -6.22469 236 ft 120 kts 65°
2026-05-05 22:15 54.65790 -6.21429 240 ft 59 kts 64°
2026-05-05 22:15 54.65940 -6.20885 248 ft 47 kts 64°
2026-05-05 22:15 54.66071 -6.20389 257 ft 44 kts 65°
2026-05-05 22:16 54.66193 -6.19934 265 ft 40 kts 65°
2026-05-05 22:16 54.66335 -6.19674 267 ft 15 kts 330°
2026-05-05 22:16 54.66396 -6.19799 266 ft 10 kts 278°
2026-05-05 22:16 54.66384 -6.19913 265 ft 10 kts 248°
2026-05-05 22:17 54.66354 -6.20028 263 ft 11 kts 242°
2026-05-05 22:17 54.66315 -6.20161 261 ft 15 kts 244°
2026-05-05 22:17 54.66259 -6.20363 259 ft 22 kts 244°
2026-05-05 22:17 54.66190 -6.20621 255 ft 25 kts 245°
2026-05-05 22:18 54.66116 -6.20903 251 ft 27 kts 246°
2026-05-05 22:18 54.66035 -6.21203 247 ft 28 kts 245°
2026-05-05 22:18 54.65951 -6.21524 243 ft 30 kts 244°
2026-05-05 22:18 54.65863 -6.21857 238 ft 23 kts 258°
2026-05-05 22:19 54.65913 -6.21990 237 ft 11 kts 338°
2026-05-05 22:19 54.65971 -6.21989 238 ft 6 kts 35°
2026-05-05 22:19 54.65979 -6.21962 237 ft 0 kts 64°